Location: Newark
(42.8481°N, 0.4872°E)
Time: 20:26:17
(UTC+00:00)

Transit 2A - Pass Details

Date: 03 November 2020
Orbit: 595 x 963 km, 66.7° (Epoch: 03 December)

Event Time Altitude Azimuth Distance (km) Brightness Sun altitude
Rises 06:54:16 0° 335° (NNW) 3,468 8.9 2.4°
Reaches altitude 10° 06:57:27 10° 351° (N) 2,461 8.3 2.9°
Maximum altitude 07:01:45 22° 40° (NE) 1,680 8.0 3.7°
Drops below altitude 10° 07:05:44 10° 91° (E) 2,258 9.9 4.3°
Sets 07:08:30 0° 107° (ESE) 3,108 11.5 4.8°
